When you browse on this site, cookies collect data to enhance your experience and personalize the content and advertising you see.
Visit our Privacy Policy to learn more. By continuing to use the site, you agree to this use of cookies and data.
  • în România
  • Lista ţărilor
  • Pe 7 zile
  • Temperatura apei
  • Hartă satelitară
  • Meteo pe hartă
  • Widget-uri
  • user-avatar
    Intrare

    Meteo pe oră la Wlostowice

    Astăzi, 9 Decembrie, Duminică

    Timp Temperatura Precipitaţii Vânt Presiune Umiditate
    00:00 +1°C° 0 mm 4 m/s 738 mmHg 79%
    01:00 +1°C° 0 mm 4 m/s 737 mmHg 81%
    02:00 +1°C° 0 mm 4 m/s 736 mmHg 82%
    03:00 +1°C° 0 mm 4 m/s 736 mmHg 83%
    04:00 +1°C° 0 mm 4 m/s 735 mmHg 83%
    05:00 +1°C° 0 mm 4 m/s 734 mmHg 82%
    06:00 +1°C° 0 mm 5 m/s 734 mmHg 82%
    07:00 0°C° 0 mm 4 m/s 733 mmHg 83%
    08:00 +1°C° 0.5 mm 4 m/s 732 mmHg 79%
    09:00 +2°C° 0.5 mm 5 m/s 732 mmHg 75%
    10:00 +3°C° 0.5 mm 6 m/s 731 mmHg 71%
    11:00 +4°C° 0.2 mm 6 m/s 731 mmHg 71%
    12:00 +5°C° 0.2 mm 6 m/s 731 mmHg 70%
    13:00 +6°C° 0 mm 5 m/s 731 mmHg 70%
    14:00 +6°C° 0.4 mm 5 m/s 731 mmHg 73%
    15:00 +5°C° 0.4 mm 5 m/s 731 mmHg 76%
    16:00 +3°C° 0.4 mm 5 m/s 731 mmHg 79%
    17:00 +3°C° 0.1 mm 5 m/s 731 mmHg 80%
    18:00 +3°C° 0.1 mm 5 m/s 732 mmHg 81%
    19:00 +4°C° 0.1 mm 4 m/s 732 mmHg 82%
    20:00 +4°C° 0 mm 4 m/s 732 mmHg 82%
    21:00 +4°C° 0 mm 4 m/s 732 mmHg 83%
    22:00 +4°C° 0 mm 4 m/s 733 mmHg 83%
    23:00 +4°C° 0.1 mm 4 m/s 733 mmHg 84%

    Mâine, 10 Decembrie, Luni

    Timp Temperatura Precipitaţii Vânt Presiune Umiditate
    00:00 +4°C° 0.1 mm 4 m/s 733 mmHg 85%
    01:00 +4°C° 0.1 mm 4 m/s 733 mmHg 85%
    02:00 +4°C° 0.2 mm 4 m/s 733 mmHg 85%
    03:00 +3°C° 0.2 mm 5 m/s 733 mmHg 85%
    04:00 +3°C° 0.2 mm 5 m/s 733 mmHg 84%
    05:00 +3°C° 0.2 mm 5 m/s 734 mmHg 82%
    06:00 +2°C° 0.2 mm 6 m/s 734 mmHg 80%
    07:00 +2°C° 0.2 mm 6 m/s 734 mmHg 78%
    08:00 +2°C° 0.2 mm 7 m/s 735 mmHg 77%
    09:00 +2°C° 0.2 mm 7 m/s 735 mmHg 76%
    10:00 +3°C° 0.2 mm 7 m/s 736 mmHg 75%
    11:00 +3°C° 0.2 mm 7 m/s 736 mmHg 73%
    12:00 +3°C° 0.2 mm 7 m/s 737 mmHg 72%
    13:00 +2°C° 0.2 mm 6 m/s 737 mmHg 70%
    14:00 +2°C° 0.2 mm 6 m/s 737 mmHg 72%
    15:00 +1°C° 0.2 mm 5 m/s 738 mmHg 73%
    16:00 +1°C° 0.2 mm 5 m/s 738 mmHg 75%
    17:00 +1°C° 0.1 mm 5 m/s 739 mmHg 76%
    18:00 0°C° 0.1 mm 5 m/s 739 mmHg 78%
    19:00 0°C° 0.1 mm 4 m/s 739 mmHg 79%
    20:00 -1°C° 0 mm 4 m/s 739 mmHg 81%
    21:00 -1°C° 0 mm 4 m/s 739 mmHg 82%
    22:00 -1°C° 0 mm 4 m/s 739 mmHg 84%
    23:00 -2°C° 0 mm 4 m/s 740 mmHg 84%

    Poimâine, 11 Decembrie, Marţi

    Timp Temperatura Precipitaţii Vânt Presiune Umiditate
    00:00 -2°C° 0 mm 4 m/s 740 mmHg 85%
    01:00 -1°C° 0 mm 3 m/s 740 mmHg 86%
    02:00 -1°C° 0 mm 3 m/s 740 mmHg 86%
    03:00 -1°C° 0 mm 3 m/s 740 mmHg 86%
    04:00 -1°C° 0 mm 3 m/s 740 mmHg 87%
    05:00 -1°C° 0 mm 3 m/s 740 mmHg 87%
    06:00 -1°C° 0 mm 3 m/s 740 mmHg 87%
    07:00 -1°C° 0 mm 3 m/s 740 mmHg 86%
    08:00 -1°C° 0 mm 3 m/s 740 mmHg 83%
    09:00 -1°C° 0 mm 4 m/s 740 mmHg 79%
    10:00 0°C° 0 mm 4 m/s 740 mmHg 76%
    11:00 0°C° 0.2 mm 4 m/s 740 mmHg 76%
    12:00 +1°C° 0.2 mm 4 m/s 740 mmHg 75%
    13:00 +1°C° 0.2 mm 4 m/s 740 mmHg 75%
    14:00 +2°C° 0.2 mm 3 m/s 740 mmHg 78%
    15:00 +1°C° 0.2 mm 3 m/s 740 mmHg 81%
    16:00 +2°C° 0.2 mm 2 m/s 740 mmHg 84%
    17:00 +2°C° 0.2 mm 2 m/s 740 mmHg 85%
    18:00 +1°C° 0.2 mm 2 m/s 740 mmHg 86%
    19:00 +1°C° 0.2 mm 2 m/s 740 mmHg 87%
    20:00 +1°C° 0.2 mm 2 m/s 741 mmHg 88%
    21:00 +1°C° 0.2 mm 2 m/s 741 mmHg 89%
    22:00 +1°C° 0.2 mm 2 m/s 741 mmHg 90%
    23:00 +1°C° 0.1 mm 2 m/s 741 mmHg 91%

    12 Decembrie, Miercuri

    Timp Temperatura Precipitaţii Vânt Presiune Umiditate
    00:00 +1°C° 0.1 mm 1 m/s 741 mmHg 92%
    01:00 +1°C° 0.1 mm 1 m/s 742 mmHg 93%
    02:00 +1°C° 0 mm 1 m/s 742 mmHg 93%
    03:00 +1°C° 0 mm 1 m/s 742 mmHg 93%
    04:00 +1°C° 0 mm 1 m/s 742 mmHg 93%
    05:00 +1°C° 0 mm 1 m/s 743 mmHg 93%
    06:00 +1°C° 0 mm 1 m/s 743 mmHg 93%
    07:00 0°C° 0 mm 0 m/s 743 mmHg 93%
    08:00 +2°C° 0 mm 1 m/s 744 mmHg 92%
    09:00 +2°C° 0 mm 1 m/s 744 mmHg 91%
    10:00 +2°C° 0 mm 1 m/s 744 mmHg 90%
    11:00 +2°C° 0 mm 1 m/s 745 mmHg 89%
    12:00 +3°C° 0 mm 1 m/s 745 mmHg 88%
    13:00 +3°C° 0 mm 1 m/s 745 mmHg 86%
    14:00 +2°C° 0 mm 1 m/s 745 mmHg 88%
    15:00 +2°C° 0 mm 1 m/s 745 mmHg 90%
    16:00 +1°C° 0 mm 1 m/s 746 mmHg 92%
    17:00 +1°C° 0 mm 1 m/s 746 mmHg 92%
    18:00 +1°C° 0 mm 1 m/s 746 mmHg 93%
    19:00 0°C° 0 mm 1 m/s 746 mmHg 93%
    20:00 0°C° 0 mm 1 m/s 746 mmHg 93%
    21:00 0°C° 0 mm 1 m/s 747 mmHg 93%
    22:00 0°C° 0 mm 1 m/s 747 mmHg 93%
    23:00 0°C° 0 mm 1 m/s 747 mmHg 93%

    13 Decembrie, Joi

    Timp Temperatura Precipitaţii Vânt Presiune Umiditate
    00:00 0°C° 0 mm 1 m/s 747 mmHg 94%
    01:00 0°C° 0 mm 1 m/s 747 mmHg 94%
    02:00 0°C° 0 mm 1 m/s 747 mmHg 94%
    03:00 -2°C° 0 mm 2 m/s 747 mmHg 94%
    04:00 -2°C° 0 mm 2 m/s 747 mmHg 94%
    05:00 -2°C° 0 mm 2 m/s 747 mmHg 94%
    06:00 -2°C° 0 mm 2 m/s 747 mmHg 93%
    07:00 -2°C° 0 mm 2 m/s 747 mmHg 93%
    08:00 -2°C° 0 mm 2 m/s 747 mmHg 91%
    09:00 -2°C° 0 mm 2 m/s 747 mmHg 89%
    10:00 -1°C° 0 mm 3 m/s 747 mmHg 86%
    11:00 -1°C° 0 mm 3 m/s 746 mmHg 84%
    12:00 -1°C° 0 mm 3 m/s 746 mmHg 83%
    13:00 0°C° 0 mm 3 m/s 746 mmHg 81%
    14:00 -1°C° 0 mm 2 m/s 746 mmHg 83%
    15:00 -1°C° 0 mm 2 m/s 746 mmHg 85%
    16:00 -1°C° 0 mm 2 m/s 746 mmHg 87%
    17:00 -2°C° 0 mm 2 m/s 746 mmHg 88%
    18:00 -2°C° 0 mm 2 m/s 746 mmHg 89%
    19:00 0°C° 0 mm 1 m/s 746 mmHg 90%
    20:00 0°C° 0 mm 1 m/s 746 mmHg 91%
    21:00 0°C° 0 mm 1 m/s 746 mmHg 91%
    22:00 0°C° 0 mm 1 m/s 746 mmHg 92%
    23:00 -1°C° 0 mm 1 m/s 746 mmHg 92%

    14 Decembrie, Vineri

    Timp Temperatura Precipitaţii Vânt Presiune Umiditate
    00:00 -1°C° 0 mm 1 m/s 746 mmHg 92%
    01:00 -1°C° 0 mm 1 m/s 746 mmHg 93%
    02:00 -1°C° 0 mm 1 m/s 746 mmHg 92%
    03:00 -1°C° 0 mm 1 m/s 746 mmHg 92%
    04:00 -1°C° 0 mm 1 m/s 745 mmHg 91%
    05:00 -1°C° 0 mm 1 m/s 746 mmHg 91%
    06:00 -1°C° 0 mm 1 m/s 746 mmHg 91%
    07:00 -1°C° 0 mm 1 m/s 746 mmHg 92%
    08:00 -1°C° 0 mm 1 m/s 746 mmHg 90%
    09:00 0°C° 0 mm 1 m/s 746 mmHg 88%
    10:00 0°C° 0 mm 1 m/s 746 mmHg 86%
    11:00 +1°C° 0 mm 1 m/s 746 mmHg 85%
    12:00 +1°C° 0 mm 1 m/s 746 mmHg 84%
    13:00 +1°C° 0 mm 1 m/s 746 mmHg 83%
    14:00 +1°C° 0 mm 1 m/s 746 mmHg 86%
    15:00 0°C° 0 mm 1 m/s 746 mmHg 88%
    16:00 0°C° 0 mm 1 m/s 746 mmHg 91%
    17:00 0°C° 0 mm 1 m/s 746 mmHg 91%
    18:00 0°C° 0 mm 1 m/s 746 mmHg 92%
    19:00 0°C° 0 mm 1 m/s 746 mmHg 92%
    20:00 0°C° 0 mm 1 m/s 746 mmHg 92%
    21:00 0°C° 0 mm 1 m/s 746 mmHg 92%
    22:00 0°C° 0 mm 1 m/s 746 mmHg 92%
    23:00 0°C° 0 mm 1 m/s 746 mmHg 92%
    Arată mai mult